Lapse_Rate
6.2 6.4 6.7 6.5 6.4 6.3 6.2 6.2 6.2 6.0 6.1 6.2 6.2 6.1 6.1 6.0 5.9 5.7 5.6 5.8 5.7 5.7 5.7 5.6 5.7 5.7 5.7 5.8 5.5 5.3 5.5 5.4 5.4 5.4 5.3 5.3 5.3 5.4 5.4 5.5 5.5 5.5 5.4
6.5 6.6 6.7 6.6 6.6 6.5 6.5 6.3 6.1 6.2 6.3 6.2 6.2 6.3 6.2 6.3 6.2 5.9 5.8 5.8 6.0 5.9 5.9 5.8 5.7 5.8 5.8 5.9 5.8 5.5 5.6 5.5 5.4 5.2 5.3 5.2 5.3 5.2 5.2 5.4 5.5 5.5 5.4
6.5 6.5 6.5 6.7 6.7 6.6 6.6 6.5 6.4 6.4 6.4 6.3 6.3 6.4 6.2 6.2 6.2 6.2 5.9 5.9 5.9 5.9 5.9 5.9 5.8 6.0 5.8 5.7 5.8 5.7 5.6 5.6 5.5 5.4 5.3 5.3 5.2 5.3 5.2 5.3 5.4 5.5 5.5
6.2 6.4 6.3 6.7 6.6 6.6 6.8 6.7 6.7 6.7 6.6 6.5 6.4 6.4 6.4 6.3 6.3 6.1 6.2 6.0 6.0 6.0 5.9 6.0 5.9 5.9 5.9 5.8 5.8 5.9 5.8 5.7 5.6 5.5 5.5 5.0 5.3 5.3 5.2 5.2 5.2 5.2 5.4
6.3 6.3 6.5 6.7 6.8 6.9 6.9 6.9 6.8 6.7 6.6 6.5 6.4 6.4 6.3 6.3 6.2 6.2 6.3 6.2 6.0 6.0 5.9 5.9 6.0 5.8 5.8 5.8 5.8 6.0 5.8 5.7 5.7 5.5 5.4 5.5 5.4 5.3 5.3 5.3 5.2 5.2 5.4
6.3 6.4 6.4 6.6 6.7 6.5 6.5 6.5 6.5 6.5 6.4 6.3 6.4 6.5 6.5 6.5 6.4 6.4 6.2 6.4 6.5 5.9 5.9 5.9 5.9 5.9 5.8 5.8 5.8 5.9 5.9 5.7 5.6 5.6 5.6 5.6 5.6 5.2 5.2 5.2 5.2 5.2 5.3
6.3 6.2 6.3 6.3 6.3 6.3 6.2 6.3 6.3 6.3 6.3 6.4 6.4 6.4 6.4 6.5 6.7 6.7 6.6 6.6 6.7 6.4 6.1 6.0 5.9 5.9 5.9 5.8 5.8 6.0 5.8 5.8 5.7 5.6 5.6 5.7 5.6 5.5 5.4 5.3 5.3 5.3 5.4
6.1 6.1 6.2 6.3 6.3 6.2 6.2 6.2 6.3 6.3 6.3 6.3 6.4 6.5 6.5 6.5 6.7 6.8 6.7 6.7 6.5 6.5 6.4 6.1 6.0 5.8 5.8 5.7 5.5 5.9 5.8 5.6 5.8 5.7 5.7 5.7 5.6 5.6 5.5 5.4 5.3 5.4 5.5
5.9 6.0 6.1 6.2 6.3 6.2 6.2 6.2 6.2 6.3 6.3 6.3 6.4 6.4 6.4 6.4 6.4 6.6 6.6 6.5 6.5 6.5 6.5 6.5 6.0 6.0 5.9 5.5 5.3 5.5 5.8 5.7 5.7 5.8 5.7 5.7 5.7 5.6 5.6 5.6 5.5 5.5 5.5
5.9 5.9 6.2 6.3 6.3 6.3 6.3 6.3 6.3 6.3 6.3 6.4 6.3 6.4 6.4 6.4 6.3 6.4 6.6 6.6 6.4 6.3 6.3 6.4 6.3 6.1 5.8 5.4 5.3 5.6 5.9 5.8 5.8 5.8 5.8 5.7 5.7 5.6 5.6 5.6 5.6 5.6 5.5
6.1 6.2 6.2 6.3 6.2 6.1 6.3 6.4 6.4 6.3 6.2 6.2 6.2 6.3 6.4 6.3 6.3 6.3 6.5 6.6 6.6 6.4 6.4 6.3 6.1 5.9 5.9 5.9 5.5 5.4 5.8 5.8 5.7 5.7 5.8 5.8 5.7 5.6 5.5 5.6 5.5 5.5 5.5
6.5 6.4 6.2 6.3 6.2 6.2 6.1 6.3 6.3 6.4 6.4 6.3 6.3 6.3 6.2 6.3 6.5 6.4 6.3 6.4 6.3 6.4 6.4 6.4 6.2 6.0 5.7 6.0 5.7 5.7 5.6 5.8 5.7 5.5 5.8 5.7 5.7 5.6 5.5 5.5 5.5 5.6 5.4
6.4 6.4 6.1 6.2 6.2 6.1 6.3 6.3 6.1 6.1 6.4 6.4 6.1 6.2 6.1 6.2 6.1 6.3 6.4 6.3 6.5 6.4 6.4 6.5 6.5 6.3 6.0 6.1 5.9 5.5 5.6 5.6 5.7 5.7 5.8 5.7 5.7 5.6 5.5 5.6 5.5 5.4 5.5
6.7 6.7 6.3 6.0 5.7 5.8 5.8 6.3 6.1 6.1 6.3 6.3 6.2 6.1 6.3 6.3 6.0 6.0 6.4 6.3 6.0 6.4 6.4 6.5 6.4 6.5 6.4 6.2 6.4 6.1 5.7 5.5 5.4 5.5 5.7 5.6 5.6 5.6 5.6 5.5 5.5 5.3 5.5
7.0 6.6 6.9 6.4 5.9 5.9 6.1 5.9 6.2 6.0 6.0 6.2 6.1 6.1 6.1 6.2 6.2 6.1 6.2 6.2 6.1 6.1 6.5 6.5 6.5 6.4 6.4 6.4 6.4 6.4 6.1 5.9 5.7 5.6 5.7 5.7 5.6 5.6 5.5 5.5 5.3 5.2 5.4
7.0 6.8 6.6 6.6 6.4 6.3 6.1 6.3 6.2 6.0 6.1 6.2 6.2 6.3 6.3 6.1 6.1 6.0 6.2 6.1 6.1 5.9 6.0 6.2 6.2 6.4 6.3 6.4 6.3 6.2 6.0 6.0 6.1 5.9 5.9 5.7 5.6 5.6 5.4 5.3 5.0 5.0 5.0
6.8 6.7 6.7 6.6 6.7 6.5 6.5 6.5 6.2 6.2 6.1 6.0 6.0 6.1 6.3 6.3 6.2 6.0 5.7 5.7 5.9 6.0 6.1 6.2 6.1 6.1 6.3 6.4 6.2 6.2 6.1 6.1 6.2 6.0 6.0 5.9 5.8 5.6 5.5 5.1 5.2 5.1 5.0
6.8 6.9 6.8 6.6 6.7 6.7 6.5 6.4 6.6 6.3 6.1 6.1 6.1 5.9 5.8 5.8 5.9 5.9 5.8 5.7 5.4 5.7 5.8 6.1 6.0 6.1 6.2 6.3 6.3 6.4 6.4 6.3 6.2 6.0 5.9 5.9 6.0 5.8 5.6 5.5 5.4 5.5 5.4
6.8 6.8 6.6 6.5 6.5 6.4 6.4 6.5 6.6 6.5 6.5 6.1 5.9 6.0 6.0 5.8 5.7 5.6 5.8 5.6 5.8 5.6 5.7 5.7 6.1 6.2 6.1 6.0 6.4 6.5 6.5 6.5 6.5 6.3 6.1 5.9 5.8 5.9 5.7 5.5 5.5 5.6 5.5
6.9 6.7 6.7 6.5 6.2 6.5 6.2 6.2 6.4 6.2 6.3 6.2 6.1 6.1 6.0 5.9 5.9 5.9 5.9 5.9 5.8 5.8 5.9 6.0 5.7 5.8 6.0 5.9 6.1 6.5 6.4 6.6 6.6 6.5 6.3 6.0 6.0 6.0 5.9 5.7 5.5 5.5 5.6
6.5 6.5 6.2 6.2 6.2 6.0 6.0 6.2 6.3 6.2 6.5 6.5 6.2 6.2 6.0 5.8 5.5 5.6 5.6 5.7 5.9 5.9 5.8 5.9 5.9 5.8 5.7 6.0 5.9 6.2 6.4 6.4 6.4 6.4 6.3 6.0 6.1 6.1 6.1 5.8 5.9 5.3 5.7
6.2 6.3 6.6 6.8 5.9 5.6 5.6 6.0 6.1 6.2 6.4 6.3 6.3 6.3 6.0 5.7 5.4 5.2 5.3 5.5 5.7 5.7 5.8 5.7 5.9 5.7 5.7 5.8 6.0 5.9 6.1 6.2 6.4 6.3 6.4 6.3 6.4 6.1 6.0 6.0 5.9 5.8 5.6
6.3 6.1 6.2 6.3 5.8 5.4 5.4 5.8 6.2 6.3 6.6 6.5 6.4 5.9 5.8 5.5 5.3 5.4 5.2 5.3 5.4 5.4 5.4 5.4 5.3 5.5 5.5 5.5 5.8 5.8 5.8 6.2 6.2 6.2 6.3 6.2 6.3 6.2 5.9 5.9 5.8 5.9 5.9
6.5 6.3 6.0 6.0 5.7 5.9 6.0 6.2 6.3 6.6 6.6 6.4 6.0 5.8 5.7 5.5 5.5 5.5 5.4 5.1 5.0 5.1 5.1 5.2 5.2 5.3 5.3 5.5 5.5 5.8 5.7 6.0 6.0 6.0 6.0 6.2 6.0 6.1 5.5 5.5 5.7 5.7 5.7
7.0 6.4 6.2 6.2 6.1 6.1 6.4 6.4 6.7 6.7 6.5 6.2 5.9 5.8 5.8 5.6 5.5 5.5 5.3 5.2 5.3 5.1 5.1 5.2 5.0 5.2 5.1 5.1 5.4 5.7 5.8 5.8 5.7 5.8 5.8 6.0 6.0 6.0 5.7 5.5 5.5 5.4 5.6
7.3 7.0 6.6 6.3 6.3 6.4 6.4 6.7 7.0 6.8 6.5 6.1 5.7 5.7 5.7 5.5 5.3 5.3 5.3 5.3 5.4 5.4 5.3 5.1 5.1 5.0 5.2 5.2 5.3 5.4 5.7 5.7 5.9 5.7 5.8 5.8 5.7 5.5 5.7 5.7 5.5 5.6 5.5
Wind_Speed
13 19 14 16 15 15 14 14 16 17 17 18 18 16 15 16 14 13 12 13 12 10 10 7 7 7 8 9 9 12 13 13 13 13 12 12 12 13 13 12 12 17 15
17 21 15 15 15 15 16 16 16 16 17 17 17 16 15 14 12 11 12 12 10 9 9 6 7 8 8 10 10 13 13 13 13 14 13 12 12 13 11 6 12 16 15
16 22 19 16 16 15 15 16 16 17 17 16 16 15 14 14 12 10 10 9 8 8 7 7 6 7 10 9 12 13 13 12 13 13 14 13 13 10 11 11 15 13 14
16 21 20 15 16 16 16 16 16 17 18 17 18 16 16 14 12 11 9 8 7 6 6 6 7 8 10 10 12 13 13 12 12 12 13 12 12 11 12 14 13 12 13
15 20 21 17 18 18 17 16 16 16 17 16 16 15 14 13 12 10 9 8 8 6 4 4 6 7 9 10 12 13 13 12 12 14 8 10 12 13 12 12 14 12 12
14 18 21 18 18 17 16 15 15 15 15 14 13 12 12 11 9 8 7 7 5 6 7 4 5 6 7 10 12 13 13 13 12 8 8 5 3 15 11 11 11 10 12
14 16 18 16 15 16 16 15 15 14 15 14 13 11 10 10 9 8 6 5 5 6 5 5 5 6 6 10 12 12 13 13 11 6 7 9 11 16 11 9 11 11 11
13 16 18 15 15 16 16 16 15 14 14 12 11 10 9 9 8 7 4 4 4 4 5 5 5 6 7 9 12 11 13 13 8 7 6 7 15 10 11 10 10 10 11
13 13 16 16 15 14 14 14 14 14 13 12 11 10 9 6 4 4 3 3 3 4 4 4 6 6 6 9 12 12 11 11 10 7 9 7 14 8 11 11 11 10 11
11 11 13 16 16 14 14 13 13 13 13 12 11 9 9 6 6 5 4 7 5 4 3 3 5 6 6 8 11 12 12 10 14 10 6 6 16 11 12 12 11 12 11
9 12 11 13 13 12 13 14 11 9 9 9 10 9 10 10 11 10 8 4 3 4 4 3 5 7 8 5 11 15 13 12 12 8 9 12 13 12 11 12 12 11 12
13 12 11 11 11 12 11 10 12 12 14 12 10 10 9 5 3 5 2 4 7 6 6 4 5 8 10 14 14 13 13 13 9 11 7 13 14 13 13 13 14 13 13
13 10 11 10 12 11 8 8 8 9 10 10 8 7 6 3 4 7 8 8 11 12 13 13 11 12 11 8 9 12 12 12 11 10 6 13 16 15 14 15 15 14 14
13 13 12 11 9 10 5 8 7 8 8 9 6 7 5 5 4 5 9 6 10 10 7 5 8 5 9 10 9 10 10 11 11 9 7 13 17 18 16 16 15 13 16
11 11 12 11 9 9 7 8 7 8 8 5 8 10 10 8 4 2 6 11 15 10 10 3 6 7 7 8 10 11 13 13 18 13 13 15 15 19 19 17 17 16 18
10 11 11 11 10 11 8 8 7 8 6 10 10 10 13 11 7 4 6 14 15 17 9 7 7 5 6 7 9 11 11 10 16 15 15 13 17 18 22 21 19 17 16
9 10 11 10 10 10 9 8 9 10 11 10 9 12 14 15 14 13 10 15 19 14 10 7 6 6 6 7 8 9 11 13 14 14 16 17 13 18 18 20 21 21 18
10 12 11 10 10 10 8 7 7 6 5 6 8 10 13 14 15 16 11 11 16 14 13 7 6 8 5 7 7 7 8 9 11 12 14 17 14 15 19 24 28 25 21
12 11 11 11 11 10 9 8 8 8 7 7 8 10 9 12 15 14 12 16 18 13 9 8 7 7 6 7 8 7 7 7 7 12 11 15 16 18 17 23 27 25 26
10 11 12 11 11 10 6 6 5 5 5 8 7 8 8 11 13 14 12 12 14 8 10 10 9 8 6 6 8 7 7 7 6 8 9 11 15 17 15 16 11 18 25
7 10 12 12 10 10 7 5 5 5 4 4 7 6 9 11 13 13 10 10 12 10 12 10 9 10 9 7 6 9 7 7 7 8 8 6 12 15 16 13 10 14 15
8 7 5 3 9 8 6 5 2 2 3 2 4 6 8 10 12 12 12 10 10 9 11 12 11 8 8 8 7 5 6 6 8 9 10 8 11 11 12 16 15 16 18
9 6 6 5 9 7 6 5 4 3 2 4 3 5 4 8 9 10 11 10 9 9 6 10 9 10 8 8 9 6 5 6 4 8 10 9 8 8 9 9 13 15 14
8 8 10 7 7 8 8 5 3 1 4 4 4 4 6 8 9 11 11 10 9 8 9 7 4 6 7 8 7 9 10 3 5 3 3 6 7 9 8 7 7 10 12
11 11 10 8 6 7 7 6 4 1 2 3 5 6 6 6 7 9 11 9 9 6 8 9 9 7 5 8 8 7 9 9 7 4 4 2 4 6 5 7 8 13 10
12 12 11 9 7 7 7 8 6 6 5 5 6 5 5 5 6 5 8 7 8 8 9 9 10 11 7 4 8 9 8 8 9 7 5 5 3 2 3 5 6 7 9
Wind_Direction
145 135 144 134 129 122 114 122 132 135 131 132 136 142 141 141 141 136 139 146 139 138 138 150 158 167 155 145 139 135 131 134 129 125 122 121 121 117 116 130 152 109 118
143 143 141 134 128 123 116 111 114 126 129 130 136 139 141 138 135 136 139 140 140 133 129 117 130 143 154 149 148 148 141 134 133 132 128 120 121 126 127 150 98 115 122
144 141 149 132 128 128 122 116 117 118 124 128 134 140 145 142 140 143 141 144 137 131 123 122 120 131 162 150 148 147 144 143 140 142 170 143 125 135 124 106 105 118 120
140 143 145 132 130 135 131 129 127 128 131 134 137 139 141 143 147 150 150 148 136 138 133 135 139 142 151 157 153 150 146 150 149 167 196 136 131 145 140 123 124 130 130
149 151 133 144 144 144 139 137 135 135 137 139 140 143 145 150 157 156 162 164 157 160 156 156 154 158 165 166 159 156 156 158 158 199 108 114 156 132 130 130 135 140 157
161 153 139 151 150 146 141 138 136 136 138 141 142 144 147 153 158 161 175 171 179 175 173 170 160 166 171 170 168 162 159 154 179 183 125 124 178 129 152 158 136 128 127
157 148 155 153 149 148 146 145 145 144 141 147 147 148 151 154 155 156 165 165 180 192 167 176 170 179 172 180 171 171 161 171 209 157 177 159 112 141 152 150 149 149 144
157 147 152 156 157 154 153 153 154 154 152 150 155 156 155 158 159 156 178 177 197 225 199 190 184 189 175 180 173 175 173 185 197 172 170 175 127 161 163 163 163 159 156
152 153 159 170 168 163 164 163 163 161 158 160 164 166 166 169 146 153 188 193 205 241 232 211 206 196 182 184 177 176 190 194 215 163 189 190 150 181 181 167 177 177 165
161 161 167 173 174 178 174 176 175 172 170 170 170 170 173 175 173 202 235 201 230 216 223 206 201 206 199 189 173 206 196 199 235 176 249 121 151 188 193 177 186 187 178
177 181 181 177 179 186 183 177 184 187 186 179 179 182 183 213 177 180 212 125 223 237 239 220 186 186 176 237 202 203 203 211 238 233 200 128 164 189 203 191 191 193 186
183 186 188 186 185 190 203 174 204 194 204 204 196 178 221 225 242 305 318 207 241 237 232 202 184 178 189 189 208 202 215 230 216 255 183 152 181 196 205 203 196 204 195
181 186 192 195 192 202 192 176 194 207 216 214 207 205 219 273 310 216 247 248 235 212 227 190 176 196 189 244 184 212 208 228 234 230 189 166 191 202 207 203 201 206 211
175 184 185 193 196 203 229 197 198 212 211 212 214 204 211 201 215 285 306 227 270 260 213 202 199 200 200 199 219 200 217 232 253 249 221 183 201 207 209 206 199 207 222
173 182 182 184 196 205 198 213 220 230 206 237 203 209 212 181 178 255 284 287 275 216 243 213 236 213 210 208 217 220 227 198 245 236 251 184 212 212 210 211 198 214 227
176 179 186 189 192 201 210 205 212 233 233 221 221 214 212 216 202 222 301 289 265 258 240 208 210 233 228 213 220 224 228 234 215 241 241 222 208 223 215 210 202 212 235
184 185 189 194 195 202 208 206 216 214 225 224 218 217 219 216 190 192 181 245 253 258 260 242 243 245 239 244 229 226 230 243 226 228 234 247 217 215 223 207 218 211 213
195 190 191 192 195 199 197 205 220 219 233 262 268 217 212 219 217 207 209 227 229 237 235 229 231 243 232 239 243 236 218 234 235 233 231 246 244 252 200 210 208 212 200
201 197 197 196 199 200 202 202 208 210 229 242 222 233 222 225 220 228 224 219 220 232 231 239 262 262 222 236 242 243 245 228 238 231 244 248 239 252 253 194 210 215 200
202 198 202 202 195 193 208 216 213 232 227 242 239 242 242 239 236 232 236 244 237 236 235 235 244 245 230 253 252 228 236 234 234 235 236 235 242 250 250 266 215 220 214
193 196 200 198 191 182 189 204 204 229 237 236 254 256 253 249 246 238 246 230 232 233 242 230 232 232 249 210 244 240 226 230 230 239 229 230 246 240 237 226 218 246 228
176 187 202 201 196 188 172 204 233 206 185 249 259 267 266 259 252 251 257 251 245 230 240 229 217 235 233 220 236 251 246 213 215 229 232 213 226 225 240 216 215 229 245
167 155 161 174 167 176 169 171 171 165 203 249 254 273 277 273 266 259 250 252 249 250 250 236 225 213 235 249 222 225 247 236 191 192 218 237 234 227 238 226 233 239 241
179 162 147 168 159 165 180 155 123 359 321 8 302 321 300 285 287 270 258 248 238 226 233 240 228 181 230 253 231 222 245 297 226 194 224 247 237 244 231 265 265 245 256
161 158 152 156 153 156 144 133 149 29 71 25 358 347 336 305 276 282 267 255 241 222 227 228 207 176 194 233 245 231 233 233 226 256 237 163 293 249 242 216 224 247 244
161 166 145 146 141 144 133 114 99 85 52 31 19 350 353 335 318 306 288 273 256 236 230 225 211 196 183 211 253 246 223 226 231 238 252 269 243 210 253 256 259 268 276